Location: Beetenbrück
(52.8113°N, 9.5946°E)
Time: 20:58:22
(UTC+00:00)

Cosmos 2298 Rocket - Pass Details

Date: 14 April 2026
Orbit: 772 x 782 km, 74.0° (Epoch: 12 May)

Event Time Altitude Azimuth Distance (km) Brightness Sun altitude
Exits shadow 22:01:10 66° 213° (SSW) 850 4.0 -25.2°
Maximum altitude 22:01:57 86° 296° (WNW) 788 3.9 -25.2°
Drops below altitude 10° 22:07:17 10° 25° (NNE) 2,345 7.0 -25.5°
Sets 22:09:42 0° 26° (NNE) 3,278 7.9 -25.6°
